{"data":{"norad_id":66110,"epoch":"2026-09-20T05:17:18.169152Z","epoch_age_seconds":124546,"freshness":"FRESH","line1":"1 66110U 25236AA  26263.22034918  .00022731  00000+0  68190-3 0  9991","line2":"2 66110  53.1579 279.1969 0001180  91.5934 268.5204 15.34396990 52744","mean_motion":15.3439699,"eccentricity":0.000118,"inclination_deg":53.1579,"raan_deg":279.1969,"arg_perigee_deg":91.5934,"mean_anomaly_deg":268.5204,"bstar":0.0006819,"rev_number":5274,"period_min":93.847942180856,"perigee_km":461.90496637204,"apogee_km":463.51940678008,"semimajor_km":6840.8491865761,"source":"CELESTRAK","updated_at":"2026-09-21T09:00:35.805326Z"}}